Location: McFarlands Corners
(41.4117°N, 81.3382°W)
Time: 07:47:34
(UTC+00:00)

Vanguard 1 Rocket - Pass Details

Date: 17 February 2026
Orbit: 653 x 4214 km, 34.3° (Epoch: 12 March)

Event Time Altitude Azimuth Distance (km) Brightness Sun altitude
Rises 19:58:56 0° 251° (WSW) 4,586 11.8 27.9°
Reaches altitude 10° 20:01:23 10° 248° (WSW) 3,923 11.8 27.6°
Maximum altitude 20:12:21 65° 170° (S) 2,756 10.5 26.2°
Drops below altitude 10° 20:33:28 10° 95° (E) 7,015 11.6 23.4°
Sets 20:39:43 0° 93° (E) 8,308 11.9 22.6°
